SNAP-3 EDDIE

Last updated on Sat Aug 15 2026 00:03:44 GMT+0000 (Coordinated Universal Time)

1 40972U 15058J 26226.40508266 .00219926 00000+0 11605-2 0 9993 2 40972 64.7337 250.5086 0028941 337.3141 22.6732 15.79162994128169
UTC large
Height (km)
Speed (km/s)
/
Latitude / Longitude
Inclination (degrees)
Orbital Period (minutes)
Azimuth
Elevation
Range (km)
Doppler Factor

Next 0 passes for location: London (51.5072 / 0.1276)

No passes found over London.
SNAP-3 EDDIE